STARLINK-5139 (55496 NORAD) Tracking and Keplerian Element Data

This shows tracking and keplerian element data for the satellite.

Feedback or suggestion? Click here.




ElementValue
Catalog55496
NameSTARLINK-5139
Epoch Orbit830
Epoch Day85.17443445
Epoch Year2023
RAAN77.1759
Inclination43
Eccentricity0.0002571
Argument of Perigee157.8008
Mean Anonmoly202.2971
Mean Motion15.69078167
Decay Rate0.00096867
L11 55496U 23015AZ 23085.17443445 .00096867 00000+0 80656-3 0 9993
L22 55496 43.0000 77.1759 0002571 157.8008 202.2971 15.69078167 8302



Live tracking and technical data element details for STARLINK-5139 (NORAD 55496). STARLINK-5139 can be tracked NOW for your location showing map with azimuth and elevation plus other details from your city location.







IsCatalogInMostPopularTable: catalog: 55496, numindb: -1

Insert: records affected: 1


GetName: 55496 STARLINK-5139

Hit Count: inserted at: Tue, 28 Mar 2023 03:07:29 GMT